Probability
0 0 0 0 0 0 0 0 0 0 0 0 0 0 0 0 0 0 0 0 0 0 0 0 0 0 0 0 0 0 0 0 0 0 0 0 0 0
0 0 0 0 0 0 0 0 0 0 0 0 0 0 0 0 0 0 0 0 0 0 0 0 0 0 0 0 0 0 0 0 0 0 0 0 0 0
0 0 0 0 0 0 0 0 0 0 0 0 0 0 0 0 0 0 0 0 0 0 0 0 0 0 0 0 0 0 0 0 0 0 0 0 0 0
0 0 0 0 0 0 0 0 0 0 0 0 0 0 0 0 0 0 0 0 0 0 0 0 0 0 0 0 0 0 0 0 0 0 0 0 0 0
0 0 0 0 0 0 0 0 0 0 0 0 0 0 0 0 0 0 0 0 0 0 0 0 0 0 0 0 0 0 0 0 0 0 0 0 0 0
0 0 0 0 0 0 0 0 0 0 0 0 0 0 0 0 0 0 0 0 0 0 0 0 0 0 0 0 0 0 0 0 0 0 0 0 0 0
0 0 0 0 0 0 0 0 0 0 0 0 0 0 0 0 0 0 0 0 0 0 0 0 0 0 0 0 0 0 0 0 0 0 0 0 0 0
0 0 0 0 0 0 0 0 0 0 0 0 0 0 0 0 0 0 0 0 0 0 0 0 0 0 0 0 0 0 0 0 0 0 0 0 0 0
0 0 0 0 0 0 0 0 0 0 0 0 0 0 0 0 0 0 0 0 0 0 0 0 0 0 0 0 0 0 0 0 0 0 0 0 0 0
0 0 0 0 0 0 0 0 0 0 0 0 0 0 0 0 0 0 0 0 0 0 0 0 0 0 0 0 0 0 0 0 0 0 0 0 0 0
0 0 0 0 0 0 0 0 0 0 0 0 0 0 0 0 0 0 0 0 0 0 0 0 0 0 0 0 0 0 0 0 0 0 0 0 0 0
0 0 0 0 0 0 0 0 0 0 0 0 0 0 0 0 0 0 0 0 0 0 0 0 0 0 0 0 0 0 0 0 0 0 0 0 0 0
0 0 0 0 0 0 0 0 0 0 0 0 0 0 0 0 0 0 0 0 0 0 0 0 0 0 0 0 0 0 0 0 0 0 0 0 0 0
0 0 0 0 0 0 0 0 0 0 0 0 0 0 0 0 0 0 0 0 0 0 0 0 0 0 0 0 0 0 0 0 0 0 0 0 0 0
0 0 0 0 0 0 0 0 0 0 0 0 0 0 0 0 0 0 0 0 0 0 0 0 0 0 0 0 0 0 0 0 0 0 0 0 0 0
0 0 0 0 0 0 0 0 0 0 0 0 0 0 0 0 0 0 0 0 0 0 0 0 0 0 0 0 0 0 0 0 0 0 0 0 0 0
0 0 0 0 0 0 0 0 0 0 0 0 0 0 0 0 0 0 0 0 0 0 0 0 0 0 0 0 0 0 0 0 0 0 0 0 0 0
0 0 0 0 0 0 0 0 0 0 0 0 0 0 0 0 0 0 0 0 0 0 0 0 0 0 0 0 0 0 0 0 0 0 0 0 0 0
0 0 0 0 0 0 0 0 0 0 0 0 0 0 0 0 0 0 0 0 0 0 0 0 0 0 0 0 0 0 0 0 0 0 0 0 0 0
0 0 0 0 0 0 0 0 0 0 0 0 0 0 0 0 0 0 0 0 0 0 0 0 0 0 0 0 0 0 0 0 0 0 0 0 0 0
0 0 0 0 0 0 0 0 0 0 0 0 0 0 0 0 0 0 0 0 0 0 0 0 0 0 0 0 0 0 0 0 0 0 0 0 0 0
0 0 0 0 0 0 0 0 0 0 0 0 0 0 0 0 0 0 0 0 0 0 0 0 0 0 0 0 0 0 0 0 0 0 0 0 0 0
0 0 0 0 0 0 0 0 0 0 0 0 0 0 0 0 0 0 0 0 0 0 0 0 0 0 0 0 0 0 0 0 0 0 0 0 0 0
Height
5759 5755 5751 5747 5742 5738 5734 5730 5726 5722 5716 5709 5702 5695 5690 5685 5680 5675 5670 5665 5661 5656 5652 5647 5643 5639 5636 5633 5630 5627 5625 5623 5622 5622 5621 5622 5623 5625
5744 5739 5735 5730 5725 5720 5715 5711 5707 5703 5699 5692 5685 5678 5672 5667 5662 5657 5652 5647 5642 5637 5633 5628 5624 5620 5616 5613 5610 5608 5605 5604 5603 5602 5602 5602 5603 5604
5727 5723 5718 5713 5708 5703 5698 5692 5688 5684 5680 5675 5668 5662 5656 5651 5645 5640 5635 5630 5625 5619 5615 5610 5606 5601 5597 5594 5591 5589 5587 5585 5584 5583 5582 5583 5583 5585
5710 5706 5701 5696 5691 5686 5680 5675 5670 5666 5663 5659 5652 5646 5640 5635 5630 5625 5619 5613 5608 5603 5598 5594 5590 5585 5582 5578 5575 5572 5570 5568 5567 5566 5565 5566 5566 5566
5693 5688 5683 5679 5674 5669 5664 5659 5655 5650 5646 5643 5638 5631 5626 5620 5616 5610 5605 5599 5594 5589 5585 5580 5576 5572 5568 5564 5561 5558 5555 5553 5552 5550 5549 5549 5550 5551
5676 5671 5667 5662 5657 5653 5648 5644 5640 5636 5631 5627 5623 5618 5612 5607 5602 5597 5592 5586 5581 5576 5572 5568 5563 5559 5555 5552 5548 5545 5542 5540 5538 5536 5535 5535 5536 5536
5659 5655 5650 5645 5641 5637 5633 5629 5626 5622 5618 5614 5610 5605 5600 5595 5590 5585 5581 5576 5571 5566 5562 5557 5553 5548 5544 5540 5536 5533 5530 5528 5526 5524 5523 5523 5523 5524
5644 5639 5635 5630 5626 5622 5618 5615 5612 5609 5606 5602 5598 5594 5589 5585 5581 5576 5572 5568 5564 5559 5553 5548 5542 5538 5533 5529 5525 5522 5519 5517 5515 5513 5512 5512 5512 5512
5629 5625 5620 5616 5613 5609 5606 5602 5600 5597 5595 5592 5588 5585 5581 5577 5573 5569 5564 5560 5555 5550 5545 5540 5534 5528 5523 5519 5515 5512 5509 5506 5504 5502 5501 5501 5501 5502
5615 5611 5608 5604 5601 5598 5595 5593 5590 5588 5585 5583 5580 5577 5574 5571 5567 5563 5559 5554 5548 5542 5537 5532 5526 5521 5515 5511 5507 5503 5500 5497 5495 5493 5491 5491 5491 5492
5603 5600 5597 5594 5592 5590 5588 5585 5583 5581 5579 5577 5574 5572 5569 5565 5562 5558 5554 5549 5543 5537 5531 5526 5520 5515 5509 5504 5500 5496 5492 5489 5487 5485 5483 5483 5483 5483
5594 5592 5590 5588 5586 5584 5582 5581 5579 5577 5575 5573 5570 5568 5565 5561 5558 5554 5549 5544 5539 5533 5527 5521 5516 5510 5505 5499 5494 5490 5486 5483 5481 5479 5477 5476 5476 5476
5588 5586 5585 5583 5582 5581 5579 5578 5576 5574 5572 5570 5568 5565 5562 5559 5555 5550 5546 5541 5535 5529 5524 5518 5512 5506 5500 5495 5490 5485 5481 5478 5475 5473 5472 5471 5471 5471
5584 5583 5582 5581 5580 5579 5578 5576 5575 5573 5571 5569 5567 5564 5560 5557 5553 5548 5543 5538 5533 5527 5521 5515 5509 5503 5497 5491 5486 5481 5477 5474 5471 5469 5468 5467 5467 5467
5583 5582 5582 5581 5580 5579 5578 5576 5575 5573 5571 5569 5566 5563 5560 5556 5551 5547 5542 5536 5531 5525 5519 5513 5507 5501 5495 5490 5484 5480 5476 5472 5469 5467 5465 5464 5464 5464
5584 5583 5582 5581 5581 5580 5579 5578 5576 5574 5572 5569 5566 5563 5559 5555 5550 5546 5541 5535 5530 5524 5519 5513 5507 5501 5495 5489 5484 5479 5475 5471 5468 5466 5464 5463 5462 5462
5585 5585 5584 5583 5583 5582 5581 5579 5577 5575 5573 5570 5567 5563 5559 5555 5550 5546 5541 5535 5530 5524 5519 5513 5507 5501 5496 5490 5484 5480 5475 5472 5469 5467 5465 5464 5463 5462
5588 5587 5587 5586 5585 5585 5583 5581 5579 5577 5574 5571 5568 5564 5560 5555 5551 5546 5541 5535 5530 5525 5519 5514 5508 5503 5497 5492 5487 5482 5478 5474 5471 5469 5467 5465 5464 5463
5591 5590 5590 5589 5589 5588 5586 5584 5582 5579 5576 5573 5569 5565 5560 5556 5551 5546 5541 5536 5531 5526 5520 5515 5510 5505 5500 5495 5490 5486 5482 5478 5475 5473 5470 5468 5466 5465
5595 5594 5594 5593 5592 5591 5589 5587 5584 5581 5578 5574 5570 5566 5562 5557 5552 5547 5542 5537 5532 5527 5522 5518 5513 5509 5504 5499 5495 5491 5487 5484 5480 5477 5475 5473 5471 5469
5599 5598 5598 5597 5595 5594 5591 5589 5586 5583 5580 5576 5572 5568 5563 5558 5553 5548 5544 5539 5534 5530 5525 5521 5517 5513 5508 5504 5500 5497 5493 5490 5486 5483 5481 5478 5477 5475
5603 5602 5601 5600 5598 5596 5594 5592 5589 5585 5582 5578 5574 5570 5565 5560 5555 5551 5546 5542 5537 5533 5529 5525 5521 5517 5513 5510 5506 5503 5499 5496 5493 5490 5488 5486 5484 5482
5607 5606 5605 5603 5601 5599 5597 5594 5591 5588 5585 5581 5577 5572 5568 5563 5558 5553 5549 5545 5541 5537 5533 5529 5526 5522 5519 5515 5512 5509 5506 5503 5501 5498 5496 5494 5492 5490
Wind_Speed
58 59 60 61 62 62 62 62 63 63 63 65 67 68 68 69 69 69 69 69 69 69 69 69 69 69 68 67 67 67 66 65 64 64 63 63 63 64
61 61 62 62 62 63 63 64 64 64 64 64 64 65 65 65 65 65 65 65 66 66 66 66 65 65 64 63 63 62 61 61 60 60 59 59 59 60
62 62 63 63 64 64 64 64 63 63 62 61 61 62 62 61 62 62 63 63 62 62 61 60 59 58 57 56 56 56 56 55 55 55 55 55 55 55
64 65 65 64 64 63 63 62 61 60 59 58 58 58 59 59 59 59 59 58 57 55 53 53 52 51 51 51 50 50 51 50 50 50 50 49 50 50
65 64 64 64 63 61 60 59 59 58 57 56 55 56 56 56 55 55 53 51 49 49 48 47 46 45 45 44 44 44 44 45 45 45 44 45 45 45
64 63 63 61 60 59 58 57 56 55 54 54 53 52 52 52 50 48 46 45 44 43 41 40 40 39 39 39 39 39 39 39 39 39 39 39 39 40
62 61 60 59 57 56 55 54 53 52 51 50 49 48 47 45 43 41 39 36 37 37 36 37 37 37 38 37 36 36 36 35 35 35 35 36 37 37
58 57 55 54 52 51 50 50 49 47 46 44 43 41 38 37 35 33 32 31 31 33 33 34 34 35 35 35 34 33 33 32 32 33 33 33 34 35
52 51 49 48 47 46 45 44 43 41 39 36 34 32 31 29 27 27 28 29 29 30 29 30 32 32 32 31 30 30 29 30 30 30 31 31 31 32
47 45 43 42 40 39 38 37 35 33 30 28 25 24 23 23 23 23 24 25 27 28 27 27 28 29 29 28 27 26 27 27 27 27 27 27 27 28
39 36 35 33 32 30 28 27 26 24 21 19 18 18 18 19 20 21 22 23 24 26 26 26 25 25 26 25 24 22 22 22 22 22 22 22 23 24
29 27 26 24 23 21 19 18 17 16 15 15 15 15 16 17 19 20 21 21 22 22 23 23 23 22 23 23 22 21 19 18 18 18 18 18 18 19
20 18 17 15 14 12 12 11 11 11 11 12 13 14 16 17 18 19 19 20 21 21 21 21 21 22 22 21 21 19 17 16 16 15 15 15 15 15
12 10 8 7 7 7 7 7 7 8 9 11 12 13 15 16 17 17 19 20 20 21 21 21 22 22 21 20 19 17 15 13 12 12 11 11 11 12
6 5 4 4 5 5 6 6 7 8 10 11 12 13 15 16 16 18 19 20 21 21 22 22 22 22 21 19 17 15 13 12 10 8 7 7 7 8
5 5 5 6 6 7 7 8 9 10 11 12 13 14 15 16 17 18 19 21 21 21 21 22 21 21 20 20 18 16 14 12 9 7 6 4 3 4
7 8 8 8 8 9 9 10 11 12 13 14 15 16 17 17 18 19 20 21 21 21 21 21 21 20 20 20 19 16 14 13 11 8 7 5 3 2
10 10 10 10 10 11 11 12 13 13 14 15 16 18 18 19 19 20 20 21 21 21 21 20 21 21 21 20 19 18 16 14 12 11 9 8 6 5
11 11 11 11 12 12 13 13 14 15 16 17 18 19 20 21 21 21 21 21 21 21 21 20 21 21 21 20 20 19 18 17 15 14 12 11 10 10
11 12 12 12 12 13 13 14 15 16 18 19 19 20 21 22 22 22 22 22 21 21 20 20 20 20 20 21 21 21 21 20 19 18 17 16 15 15
12 12 12 12 12 13 13 14 16 17 19 20 21 22 23 23 23 22 22 22 21 21 20 19 19 21 21 22 22 22 22 22 22 22 22 21 20 20
11 11 11 12 12 13 14 15 16 18 19 21 22 23 23 23 23 23 22 22 21 20 20 20 20 20 21 21 21 21 22 23 23 23 24 24 23 22
11 11 11 12 12 13 14 15 16 17 19 21 22 23 23 24 24 24 22 22 21 21 20 20 21 21 21 21 21 21 21 22 23 23 23 24 25 24
Wind_Direction
290 290 290 290 290 289 289 288 287 286 286 285 285 285 285 284 284 284 284 283 283 283 283 283 283 282 281 280 278 277 276 275 274 272 270 267 265 263
290 290 290 290 290 289 289 288 288 288 287 286 286 285 285 285 285 286 286 286 286 286 285 285 284 283 282 281 279 278 276 275 273 272 270 268 266 264
290 290 290 290 290 290 290 289 289 289 288 287 287 287 286 286 287 287 288 288 288 288 287 286 285 284 283 282 280 279 277 276 274 272 270 268 266 264
290 290 290 290 290 290 290 289 289 289 289 288 288 288 288 289 289 289 290 290 290 289 288 288 287 286 285 284 282 280 278 276 275 273 271 268 266 263
290 290 290 290 290 289 289 288 289 289 289 289 289 289 290 290 291 291 291 291 291 290 290 289 288 287 286 285 284 282 279 276 275 273 270 267 264 262
289 289 289 289 289 288 288 288 289 289 289 290 290 291 291 292 292 293 293 293 293 292 293 292 291 290 289 287 286 284 281 278 276 274 271 267 264 262
289 289 289 288 288 288 288 288 288 289 289 290 291 292 293 293 295 295 295 295 296 296 296 295 294 293 291 290 288 285 282 279 276 273 270 267 264 262
289 289 289 289 288 288 288 288 288 289 289 291 292 293 294 295 296 297 299 299 299 299 300 299 298 297 295 292 290 288 284 281 277 274 270 267 264 261
289 289 289 288 289 289 289 289 289 289 290 292 293 294 296 298 300 302 304 305 305 304 303 302 302 301 299 297 294 290 286 283 279 276 271 267 264 260
289 288 288 288 288 288 289 290 291 292 294 296 298 300 302 304 306 308 310 311 310 310 310 309 308 307 305 303 299 294 289 286 282 278 273 269 265 261
290 289 288 289 290 291 293 294 295 298 301 303 306 308 310 313 315 317 318 318 317 316 317 317 315 314 312 310 306 301 295 289 285 281 275 270 266 261
290 290 291 292 293 294 295 297 301 306 312 316 319 322 323 325 327 327 326 326 326 325 324 324 323 321 319 317 315 311 305 297 290 285 279 272 266 261
294 295 296 297 298 300 303 308 314 320 325 329 332 333 333 334 334 334 335 335 335 335 334 333 332 330 328 325 322 318 312 305 298 290 283 275 268 263
304 306 309 313 318 323 330 335 339 343 344 344 342 340 340 340 341 342 343 344 344 344 344 343 342 341 338 336 335 331 326 319 311 300 287 276 269 263
334 344 354 360 3 9 14 14 11 6 1 356 353 352 351 349 348 348 349 349 350 350 350 349 349 349 350 349 350 349 345 341 335 325 308 290 275 264
32 40 43 48 49 46 41 35 28 22 16 10 6 1 358 357 355 354 354 354 355 355 355 355 356 358 0 2 2 1 0 360 358 355 348 330 304 273
60 65 69 66 60 53 48 42 36 29 23 18 13 9 6 2 360 358 358 358 359 360 1 2 4 6 7 10 12 13 13 16 20 24 24 22 16 7
71 73 70 66 63 58 50 42 36 30 25 21 16 12 9 6 4 2 2 2 4 5 7 9 11 14 16 19 23 27 30 34 39 42 42 45 46 47
74 75 73 69 64 56 48 42 36 29 24 20 16 13 10 7 6 6 6 7 8 11 14 16 19 22 26 31 36 39 42 44 46 47 49 54 59 61
77 76 73 68 61 53 46 40 33 28 24 20 17 13 11 10 10 11 11 12 14 17 21 25 28 31 36 41 45 47 48 50 51 55 59 62 65 68
74 73 69 63 56 49 42 36 31 27 24 21 19 17 15 15 15 16 18 19 21 25 28 32 35 39 43 47 49 51 52 54 57 60 62 64 69 73
70 66 61 55 48 42 36 32 28 25 23 20 20 20 20 19 19 21 23 25 28 31 34 37 41 44 47 50 52 54 56 57 60 63 66 68 73 76
65 59 53 47 41 36 32 29 26 25 22 21 21 21 22 23 23 25 26 29 33 36 39 42 45 47 49 52 55 58 59 60 62 65 69 71 75 78